Regional Weather Roundup
Issued by NWS

Home | Current Version | Previous Version | Graphics & Text | Print | Product List | Glossary On
Versions: 1 2 3 4 5 6 7 8 9 10 11 12 13 14 15 16 17 18 19 20 21 22 23 24 25 26 27 28 29 30 31 32 33 34 35 36 37 38 39 40 41 42 43 44 45 46 47 48 49 50
000
ASUS45 KPSR 260010
RWRAZ

ARIZONA HOURLY REGIONAL WEATHER ROUNDUP
NATIONAL WEATHER SERVICE PHOENIX AZ
500 PM MST MON MAY 25 2015

NOTE: FAIR INDICATES FEW OR NO CLOUDS BELOW 12,000 FEET WITH NO
SIGNIFICANT WEATHER AND/OR OBSTRUCTIONS TO VISIBILITY.

AZZ001>003-036-260100-
NORTHWEST ARIZONA

CITY           SKY/WX    TMP DP  RH WIND       PRES   REMARKS
BULLHEAD CITY  SUNNY     93  41  16 S10G16    29.76F
KINGMAN        MOSUNNY   82  35  18 SW13      29.92F
6HR MIN TEMP:  76; 6HR MAX TEMP:  83;

$$

AZZ004>008-015-016-018-260100-
NORTH CENTRAL ARIZONA

CITY           SKY/WX    TMP DP  RH WIND       PRES   REMARKS
GRAND CANYON   MOSUNNY   64  39  39 W9        30.08F
6HR MIN TEMP:  54; 6HR MAX TEMP:  65;

WILLIAMS       CLOUDY    63  37  39 W9        30.16F
PRESCOTT       PTSUNNY   72  35  25 SW16      30.03F
6HR MIN TEMP:  66; 6HR MAX TEMP:  73;

FLAGSTAFF      MOSUNNY   54  46  74 SW12      30.13S
6HR MIN TEMP:  45; 6HR MAX TEMP:  60; 6HR PCP:  0.10;

PAYSON         CLOUDY    68  39  34 NW6       30.07S
PAGE           MOSUNNY   73  42  32 SE3       29.92F
6HR MIN TEMP:  67; 6HR MAX TEMP:  74;

$$

AZZ009>014-017-260100-
NORTHEAST ARIZONA

CITY           SKY/WX    TMP DP  RH WIND       PRES   REMARKS
WINSLOW        PTSUNNY   68  50  52 W8        30.01F
6HR MIN TEMP:  57; 6HR MAX TEMP:  73; 6HR PCP:  0.09;

SAINT JOHNS    PTSUNNY   67  36  31 W26G32    30.02S
6HR MIN TEMP:  57; 6HR MAX TEMP:  72; 6HR PCP: TRACE;

WINDOW ROCK    PTSUNNY   57  45  64 S7        30.09F
6HR MIN TEMP:  47; 6HR MAX TEMP:  61; 6HR PCP:  0.10;

SHOW LOW       PTSUNNY   59  39  47 NW9       30.10S
$$

AZZ023-260100-
GREATER PHOENIX AREA

CITY           SKY/WX    TMP DP  RH WIND       PRES   REMARKS
PHOENIX        MOSUNNY   90  38  16 NW10      29.82F
6HR MIN TEMP:  81; 6HR MAX TEMP:  92;

BUCKEYE        SUNNY     90  37  15 SW6       29.84S
DEER VALLEY    SUNNY     88  38  17 W13G20    29.84S
6HR MIN TEMP:  79; 6HR MAX TEMP:  88;

SCOTTSDALE     SUNNY     87  37  17 W5        29.86F
6HR MIN TEMP:  80; 6HR MAX TEMP:  88;

MESA-FALCON    MOSUNNY   88  37  16 S8        29.85
MESA-GATEWAY   MOSUNNY   86  41  20 VRB5      29.87F
CHANDLER       MOSUNNY   88  39  18 VRB6      29.84F
$$

AZZ027-028-260100-
SOUTHWEST MARICOPA COUNTY AND PINAL COUNTY

CITY           SKY/WX    TMP DP  RH WIND       PRES   REMARKS
CASA GRANDE    SUNNY     88  39  18 W9G20     29.84F
6HR MIN TEMP:  81; 6HR MAX TEMP:  88;

$$

AZZ503-504-507>509-260100-
SOUTHEAST ARIZONA

CITY           SKY/WX    TMP DP  RH WIND       PRES   REMARKS
TUCSON         SUNNY     87  31  13 NW13G20   29.91F
6HR MIN TEMP:  78; 6HR MAX TEMP:  88;

RYAN FIELD       N/A     88  34  14 NW5       29.90F
NOGALES        SUNNY     82  29  14 SW15      29.97S
6HR MIN TEMP:  75; 6HR MAX TEMP:  84;

DOUGLAS        SUNNY     81  26  13 W10       29.96F
6HR MIN TEMP:  72; 6HR MAX TEMP:  83;

SAFFORD        SUNNY     85  32  15 NW17G23   29.88S
6HR MIN TEMP:  78; 6HR MAX TEMP:  87;

$$

AZZ020-021-025-026-031-260100-
SOUTHWEST ARIZONA

CITY           SKY/WX    TMP DP  RH WIND       PRES   REMARKS
YUMA           SUNNY     91  36  14 S14G22    29.81S
6HR MIN TEMP:  85; 6HR MAX TEMP:  92;

$$

CAZ031-033-041-043-047-048-061-260100-
SOUTHERN CALIFORNIA

CITY           SKY/WX    TMP DP  RH WIND       PRES   REMARKS
DOWNTOWN L.A.  MOSUNNY   69  55  60 CALM      29.94F
6HR MIN TEMP:  64; 6HR MAX TEMP:  71;

L.A. AIRPORT   MOSUNNY   65  56  72 W13G18    29.97S
6HR MIN TEMP:  62; 6HR MAX TEMP:  66;

SAN DIEGO      CLOUDY    65  54  67 W8        29.99S
6HR MIN TEMP:  62; 6HR MAX TEMP:  65; 6HR PCP: TRACE;

BURBANK        SUNNY     72  53  51 VRB6      29.94F
6HR MIN TEMP:  63; 6HR MAX TEMP:  72;

ONTARIO        MOSUNNY   72  53  51 W10       29.93F
6HR MIN TEMP:  63; 6HR MAX TEMP:  73;

RIVERSIDE      MOSUNNY   73  54  51 W10       29.93F
6HR MIN TEMP:  63; 6HR MAX TEMP:  73;

PALM SPRINGS   MOSUNNY   90  48  23 NW13G24   29.81F
6HR MIN TEMP:  82; 6HR MAX TEMP:  91;

EL CENTRO NAS  SUNNY     92  44  19 SE13G21   29.79F
6HR MIN TEMP:  83; 6HR MAX TEMP:  93;

IMPERIAL       SUNNY     92  44  19 E13G18    29.77F
6HR MIN TEMP:  82; 6HR MAX TEMP:  92;

BLYTHE         SUNNY     92  38  15 S14       29.79F
6HR MIN TEMP:  85; 6HR MAX TEMP:  93;

NEEDLES        SUNNY     93  38  14 S6G16     29.77F
6HR MIN TEMP:  84; 6HR MAX TEMP:  95;

$$

NVZ020-UTZ003-260100-
SOUTHERN NEVADA-UTAH

CITY           SKY/WX    TMP DP  RH WIND       PRES   REMARKS
LAS VEGAS      MOSUNNY   86  46  24 E8        29.79F
6HR MIN TEMP:  73; 6HR MAX TEMP:  86;

SALT LAKE CITY PTSUNNY   71  41  33 NW5       29.93S
6HR MIN TEMP:  63; 6HR MAX TEMP:  71;

$$

NMZ009-TXZ055-260100-
NEW MEXICO-WEST TEXAS

CITY           SKY/WX    TMP DP  RH WIND       PRES   REMARKS
ALBUQUERQUE    CLOUDY    60  45  57 NW15G26   30.00R
6HR MIN TEMP:  57; 6HR MAX TEMP:  70; 6HR PCP:  0.13;

EL PASO        MOSUNNY   83  26  12 SW14G24   29.90F
6HR MIN TEMP:  75; 6HR MAX TEMP:  84;

$$


........................KEY........................
SKY/WX - SKY CONDITION/WEATHER
TMP    - TEMPERATURE IN FAHRENHEIT
DP     - DEW POINT IN FAHRENHEIT
RH     - RELATIVE HUMIDITY IN PERCENT
WIND   - DIRECTION AND SPEED IN MILES PER HOUR (MPH)
VRB    - VARIABLE WIND DIRECTION
PRES   - MEAN SEA LEVEL PRESSURE IN INCHES OF MERCURY
         F - FALLING PRESSURE   R - RISING PRESSURE
         S - STEADY PRESSURE
VSB    - VISIBILITY IN MILES
HX     - HEAT INDEX IN FAHRENHEIT
WCI    - WIND CHILL INDEX IN FAHRENHEIT
TC     - TEMPERATURE IN CELSIUS WHICH IS ALSO KNOWN AS
         TEMPERATURE IN CENTIGRADE
AFB    - AIR FORCE BASE
         LUKE AFB IS LUKE AIR FORCE BASE
         DAVIS-MONTHAN IS DAVIS-MONTHAN AIR FORCE BASE
NAS    - NAVAL AIR STATION
         EL CENTRO NAS IS EL CENTRO NAVAL AIR STATION
N/A    - NOT AVAILABLE




USA.gov is the U.S. government's official web portal to all federal, state and local government web resources and services.